SCP
0 0 0 0 0 0 0 0 0 0 0 0 0 0 0 0 0 0 0 0 0 0 0 0 0 0 0 0 0 0 0 0 0 0 0 0 0 0 0 0 0 0 0 0 0 0 0 0 0
0 0 0 0 0 0 0 0 0 0 0 0 0 0 0 0 0 0 0 0 0 0 0 0 0 0 0 0 0 0 0 0 0 0 0 0 0 0 0 0 0 0 0 0 0 0 0 0 0
0 0 0 0 0 0 0 0 0 0 0 0 0 0 0 0 0 0 0 0 0 0 0 0 0 0 0 0 0 0 0 0 0 0 0 0 0 0 0 0 0 0 0 0 0 0 0 0 0
0 0 0 0 0 0 0 0 0 0 0 0 0 0 0 0 0 0 0 0 0 0 0 0 0 0 0 0 0 0 0 0 0 0 0 0 0 0 0 0 0 0 0 0 0 0 0 0 0
0 0 0 0 0 0 0 0 0 0 0 0 0 0 0 0 0 0 0 0 0 0 0 0 0 0 0 0 0 0 0 0 0 0 0 0 0 0 0 0 0 0 0 0 0 0 0 0 0
0 0 0 0 0 0 0 0 0 0 0 0 0 0 0 0 0 0 0 0 0 0 0 0 0 0 0 0 0 0 0 0 0 0 0 0 0 0 0 0 0 0 0 0 0 0 0 0 0
0 0 0 0 0 0 0 0 0 0 0 0 0 0 0 0 0 0 0 0 0 0 0 0 0 0 0 0 0 0 0 0 0 0 0 0 0 0 0 0 0 0 0 0 0 0 0 0 0
0 0 0 0 0 0 0 0 0 0 0 0 0 0 0 0 0 0 0 0 0 0 0 0 0 0 0 0 0 0 0 0 0 0 0 0 0 0 0 0 0 0 0 0 0 0 0 0 0
0 0 0 0 0 0 0 0 0 0 0 0 0 0 0 0 0 0 0 0 0 0 0 0 0 0 0 0 0 0 0 0 0 0 0 0 0 0 0 0 0 0 0 0 0 0 0 0 0
0 0 0 0 0 0 0 0 0 0 0 0 0 0 0 0 0 0 0 0 0 0 0 0 0 0 0 0 0 0 0 0 0 0 0 0 0 0 0 0 0 0 0 0 0 0 0 0 0
0 0 0 0 0 0 0 0 0 0 0 0 0 0 0 0 0 0 0 0 0 0 0 0 0 0 0 0 0 0 0 0 0 0 0 0 0 0 0 0 0 0 0 0 0 0 0 0 0
0 0 0 0 0 0 0 0 0 0 0 0 0 0 0 0 0 0 0 0 0 0 0 0 0 0 0 0 0 0 0 0 0 0 0 0 0 0 0 0 0 0 0 0 0 0 0 0 0
0 0 0 0 0 0 0 0 0 0 0 0 0 0 0 0 0 0 0 0 0 0 0 0 0 0 0 0 0 0 0 0 0 0 0 0 0 0 0 0 0 0 0 0 0 0 0 0 0
0 0 0 0 0 0 0 0 0 0 0 0 0 0 0 0 0 0 0 0 0 0 0 0 0 0 0 0 0 0 0 0 0 0 0 0 0 0 0 0 0 0 0 0 0 0 0 0 0
0 0 0 0 0 0 0 0 0 0 0 0 0 0 0 0 0 0 0 0 0 0 0 0 0 0 0 0 0 0 0 0 0 0 0 0 0 0 0 0 0 0 0 0 0 0 0 0 0
0 0 0 0 0 0 0 0 0 0 0 0 0 0 0 0 0 0 0 0 0 0 0 0 0 0 0 0 0 0 0 0 0 0 0 0 0 0 0 0 0 0 0 0 0 0 0 0 0
0 0 0 0 0 0 0 0 0 0 0 0 0 0 0 0 0 0 0 0 0 0 0 0 0 0 0 0 0 0 0 0 0 0 0 0 0 0 0 0 0 0 0 0 0 0 0 0 0
0 0 0 0 -0 0 0 0 0 0 0 0 0 0 0 0 0 0 0 0 0 0 0 0 0 0 0 0 0 0 0 0 0 0 0 0 0 0 0 0 0 0 0 0 0 0 0 0 0
0 0 0 0 0 0 0 0 0 0 0 0 0 0 0 0 0 0 0 0 0 0 0 0 0 0 0 0 0 0 0 0 0 0 0 0 0 0 0 0 0 0 0 0 0 0 0 0 0
0 0 0 0 0 0 0 0 0 -0 0 0 0 0 0 0 0 0 0 0 0 0 0 0 0 0 0 0 0 0 0 0 0 0 0 0 0 0 0 0 0 0 0 0 0 0 0 0 0
0 0 0 0 0 0 0 0 0 -0 -0 -0 -0 0 0 0 0 0 0 0 0 0 0 0 0 0 0 0 0 0 0 0 0 0 0 0 0 0 0 0 0 0 0 0 0 0 0 0 0
0 0 0 0 0 0 0 0 0 -0 -0 0 0 0 0 0 0 0 0 0 0 0 0 0 0 0 0 0 0 0 0 0 0 0 0 0 0 0 0 0 0 0 0 0 0 0 0 0 0
0 0 0 0 0 0 0 0 0 0 0 0 0 0 0 0 0 0 0 0 0 0 0 0 0 0 0 0 0 0 0 0 0 0 0 0 0 0 0 0 0 0 0 0 0 0 0 0 0
0 0 0 0 0 0 0 0 0 0 0 0 0 0 0 0 0 0 0 0 0 0 0 0 0 0 0 0 0 0 0 0 0 0 0 0 0 0 0 0 0 0 0 0 0 0 0 0 0
0 0 0 0 0 0 0 0 0 0 0 0 0 0 0 0 0 0 0 0 0 0 0 0 0 0 0 0 0 0 0 0 0 0 0 0 0 0 0 0 0 0 0 0 0 0 0 0 0
0 0 0 0 0 0 0 0 0 0 0 0 0 0 0 0 0 0 0 0 0 0 0 0 0 0 0 0 0 0 0 0 0 0 0 0 0 0 0 0 0 0 0 0 0 0 0 0 0
0 0 0 0 0 0 0 0 0 0 0 0 0 0 0 0 0 0 0 0 0 0 0 0 0 0 0 0 0 0 0 0 0 0 0 0 0 0 0 0 0 0 0 0 0 0 0 0 0
0 0 0 0 0 0 0 0 0 0 0 0 0 0 0 0 0 0 0 0 0 0 0 0 0 0 0 0 0 0 0 0 0 0 0 0 0 0 0 0 0 0 0 0 0 0 0 0 0
0 0 0 0 0 0 0 0 0 0 0 0 0 0 0 0 0 0 0 0 0 0 0 0 0 0 0 0 0 0 0 0 0 0 0 0 0 0 0 0 0 0 0 0 0 0 0 0 0
0 0 0 0 0 0 0 0 0 0 0 0 0 0 0 0 0 0 0 0 0 0 0 0 0 0 0 0 0 0 0 0 0 0 0 0 0 0 0 0 0 0 0 0 0 0 0 0 0
Wind_Speed
3 1 2 2 3 4 5 4 2 3 2 1 0 1 2 1 1 2 4 4 4 6 6 7 5 6 7 7 7 6 6 6 6 6 6 6 6 6 6 6 5 6 6 6 7 8 8 8 8
2 1 2 2 5 6 5 5 5 3 3 3 2 1 2 1 2 3 3 4 5 6 6 6 5 5 7 7 7 6 6 6 6 6 6 6 6 6 6 6 5 5 6 6 7 7 7 7 7
0 1 2 3 4 6 4 4 4 3 3 3 2 1 1 1 2 2 2 4 5 6 6 6 5 5 6 7 7 6 6 6 6 6 6 6 6 6 5 5 5 5 5 6 7 7 7 6 6
1 2 1 4 7 5 3 2 3 5 3 2 2 2 2 2 2 2 4 5 6 6 5 6 5 5 5 6 7 6 6 6 6 6 5 6 5 5 5 5 5 5 5 5 6 6 6 6 6
1 2 3 5 7 4 2 2 4 4 4 3 3 2 2 2 2 3 5 6 6 5 5 6 4 5 5 6 6 6 5 5 5 5 5 5 4 4 5 4 4 4 5 5 5 6 6 6 6
2 2 5 7 7 4 3 3 4 4 3 3 3 3 2 3 3 4 5 5 5 5 5 5 4 3 4 5 6 5 5 4 5 5 4 4 4 4 4 4 4 4 4 5 5 5 5 5 5
2 3 4 5 5 5 3 3 4 4 5 3 2 3 3 3 3 3 4 4 4 5 4 4 5 4 4 4 4 4 4 4 4 4 4 5 4 4 5 5 5 5 5 5 5 5 5 5 5
1 2 4 5 6 5 3 4 2 3 3 1 2 4 2 3 4 4 4 4 4 4 4 4 4 4 4 4 4 4 4 4 4 4 4 4 4 4 5 4 5 5 5 5 5 5 5 5 5
2 4 6 6 5 3 4 4 2 1 2 2 2 1 2 5 6 5 4 4 4 3 3 3 3 4 4 3 3 4 4 3 3 3 4 2 3 3 3 4 4 4 4 5 5 5 5 5 5
4 6 6 3 3 2 4 4 3 4 4 4 4 2 2 5 6 6 6 6 6 5 4 3 4 4 3 3 3 2 2 3 3 2 3 2 2 2 2 4 3 4 4 4 5 4 3 2 2
3 5 3 3 2 2 3 3 3 5 6 7 6 5 5 6 7 7 7 7 6 5 5 4 4 4 3 2 2 2 2 2 3 3 3 2 2 2 2 2 2 2 2 2 3 2 1 1 1
2 3 2 2 1 3 4 3 4 8 6 3 3 4 6 7 7 8 7 6 6 6 6 5 5 4 4 3 2 2 2 2 2 3 3 2 2 2 2 1 2 2 1 2 2 1 1 1 1
4 3 1 2 2 3 4 7 6 8 8 4 2 4 6 7 7 6 5 5 6 6 6 6 5 5 5 4 3 3 2 2 2 2 3 3 2 2 2 2 2 2 2 2 2 2 2 2 2
2 2 2 3 3 3 5 7 7 9 5 5 5 6 6 7 7 6 5 6 6 6 6 6 6 6 5 4 4 3 3 3 3 2 3 3 3 3 2 2 2 2 2 2 2 2 2 1 1
2 2 3 3 3 2 4 9 11 8 5 6 7 7 7 7 6 7 6 6 6 6 6 6 6 6 6 6 5 4 3 3 3 2 3 3 3 3 3 2 2 2 2 3 2 3 2 2 2
2 3 5 3 2 2 5 11 5 3 5 7 7 6 7 7 7 7 6 6 6 6 6 6 5 6 6 6 5 4 4 4 3 3 3 4 4 4 3 3 3 3 2 2 3 3 2 2 2
4 5 6 3 3 2 6 10 4 2 5 7 7 6 6 6 7 6 6 6 6 6 6 6 6 6 6 6 4 4 4 4 3 3 3 4 4 4 4 3 3 3 3 3 3 3 2 2 2
6 6 5 5 2 4 8 12 10 6 7 8 7 7 7 7 7 6 6 5 5 5 6 6 6 6 6 5 4 3 4 3 3 3 3 4 4 4 4 3 3 4 3 3 3 3 2 2 2
4 6 7 5 2 5 10 14 14 9 8 9 8 7 7 8 6 4 4 4 4 5 5 6 6 6 5 4 4 4 4 4 3 3 4 5 5 5 4 3 4 4 4 4 4 3 3 2 1
6 7 7 4 2 5 9 14 12 9 9 8 8 7 7 7 5 4 3 3 4 4 5 6 6 7 7 5 5 4 4 4 4 3 4 5 5 5 5 5 4 4 4 4 5 4 3 2 2
7 8 6 4 3 4 7 9 6 4 5 5 5 5 5 5 5 4 4 4 4 4 5 5 6 7 7 6 4 3 3 3 4 4 4 5 5 6 6 6 5 5 5 5 5 5 5 4 4
7 5 5 4 4 3 3 6 4 3 3 3 4 4 4 4 5 4 4 4 4 4 4 5 6 6 6 7 6 7 6 5 6 4 4 5 5 6 6 6 6 6 5 5 5 6 5 5 4
3 1 3 3 4 4 4 6 6 1 4 3 3 3 3 3 4 4 4 4 4 3 3 4 5 5 6 6 7 8 7 5 4 4 5 5 5 6 6 6 6 6 5 6 6 6 6 5 5
4 3 2 2 3 6 5 7 7 3 4 3 2 2 2 2 3 3 3 3 2 2 2 3 4 5 5 6 7 8 8 7 6 6 5 5 4 4 6 6 6 6 6 6 6 6 7 6 6
4 4 2 2 3 6 3 6 8 3 3 3 3 3 3 2 2 2 2 2 2 2 2 3 4 5 6 6 6 6 7 7 8 7 6 5 4 4 6 6 6 6 6 6 6 6 6 7 7
7 6 4 4 4 3 4 8 5 1 2 2 2 3 3 2 1 1 2 2 2 3 3 3 4 5 6 6 6 5 6 5 4 5 5 5 5 5 5 6 6 6 6 6 6 6 6 6 7
6 6 2 1 0 4 6 5 5 3 2 1 1 2 2 2 2 2 2 2 2 2 3 4 4 5 5 6 5 5 5 5 5 4 4 4 4 4 5 6 6 6 6 6 6 5 6 6 7
2 4 4 5 4 6 5 6 4 4 3 0 2 2 3 3 2 2 2 2 2 2 2 2 3 4 5 5 4 4 5 5 5 4 4 4 4 4 4 5 6 6 6 6 6 6 6 6 6
5 4 4 3 3 5 5 4 1 3 2 1 2 2 2 2 2 2 2 2 2 1 1 1 1 2 3 3 4 4 3 3 4 4 4 4 4 3 4 4 5 5 6 6 6 6 6 7 7
4 5 6 4 4 4 4 5 1 1 1 2 2 2 2 2 2 2 2 1 1 1 1 1 1 2 2 2 3 3 3 2 3 3 3 3 3 3 3 3 4 5 5 5 6 6 7 7 7
Wind_Direction
344 329 238 223 212 220 225 205 194 168 166 102 97 229 219 228 307 44 69 129 136 146 152 156 152 143 130 124 120 116 117 117 113 118 113 107 102 102 101 94 91 93 92 89 90 88 88 86 82
345 288 212 222 230 219 214 203 196 188 118 119 144 220 204 159 34 73 116 136 147 148 150 152 136 136 131 126 123 119 116 117 116 119 116 109 103 101 98 94 92 94 92 93 90 89 89 87 84
135 309 217 206 228 232 209 183 188 145 144 178 169 226 297 77 100 104 107 146 151 146 147 141 131 129 132 126 121 117 113 112 112 111 113 114 111 104 99 95 94 90 90 93 89 88 89 90 87
198 167 188 227 226 236 250 166 156 155 160 186 193 166 129 40 39 77 126 148 150 146 147 139 131 132 134 131 125 121 118 114 113 115 111 113 115 112 105 99 95 92 92 94 89 87 88 86 85
201 196 202 225 236 230 233 199 183 187 175 169 197 192 145 103 95 124 140 149 147 146 147 146 130 131 134 137 128 123 120 118 117 121 115 112 112 114 115 105 98 94 94 93 89 84 84 83 83
167 198 218 225 223 216 211 197 192 202 182 169 198 195 138 115 137 139 150 153 148 144 147 150 133 124 130 133 133 128 123 122 123 123 120 117 112 116 117 111 105 101 98 95 91 85 80 84 85
201 200 228 233 227 216 203 181 203 200 192 186 204 194 152 149 132 139 152 150 148 147 151 157 162 154 138 125 120 128 128 125 120 118 109 103 103 104 108 104 104 104 100 95 91 88 83 87 87
218 199 214 219 225 221 166 172 201 219 208 141 214 221 175 139 135 141 148 154 152 154 164 167 169 169 166 156 126 118 124 122 119 113 101 94 98 102 101 106 101 103 102 98 94 90 85 85 86
199 218 224 216 216 206 163 183 165 228 186 185 211 285 25 125 146 152 161 170 171 172 176 178 179 177 175 169 142 138 130 129 137 127 110 130 153 144 129 110 97 102 102 99 95 90 88 89 94
207 225 229 222 226 201 184 208 187 192 209 217 209 199 146 158 174 184 189 190 190 190 191 190 192 187 181 171 166 166 164 163 170 165 161 174 167 149 142 109 97 89 89 94 91 89 101 115 122
211 233 217 216 227 226 210 216 207 217 230 229 226 203 176 183 192 201 204 203 202 198 198 200 195 194 191 182 182 180 175 173 176 177 180 178 172 163 166 148 140 135 131 133 121 131 138 125 124
203 234 239 226 216 224 232 227 222 229 247 273 245 194 189 199 206 210 212 212 208 206 207 206 199 197 199 198 193 193 189 185 185 182 182 179 176 175 171 173 176 176 176 172 167 153 143 137 143
213 224 240 259 259 253 248 244 253 248 252 263 230 198 206 211 217 219 220 219 217 214 211 209 205 205 202 201 204 204 204 201 195 186 188 187 183 184 183 182 184 184 184 184 179 169 159 164 162
184 206 245 261 255 251 251 258 249 252 240 229 216 214 219 222 222 222 220 219 219 217 215 212 209 209 206 207 207 206 206 205 202 193 194 195 192 187 188 185 185 186 189 190 186 178 177 188 185
158 211 253 240 240 238 259 257 237 243 223 232 231 228 225 228 226 226 225 227 224 221 216 212 211 210 211 211 207 206 205 204 200 196 200 199 196 193 193 188 187 187 184 186 186 184 189 190 194
184 217 240 208 217 217 244 261 246 219 219 234 236 232 229 229 230 232 233 232 230 224 217 211 210 210 211 211 209 205 204 204 201 198 198 204 202 198 194 190 187 182 185 189 189 189 191 196 206
205 231 240 237 200 213 238 265 269 228 235 244 240 235 234 236 238 239 234 229 229 226 218 211 210 210 211 210 209 208 205 203 202 201 202 204 204 203 198 190 183 181 183 190 193 194 200 205 212
214 225 235 242 205 234 249 261 270 254 246 251 249 243 241 242 244 242 236 230 226 225 220 213 209 209 207 204 203 205 206 206 204 203 207 207 204 202 200 189 184 183 185 187 192 192 198 212 206
230 228 245 254 246 254 256 267 273 263 244 247 248 247 247 251 255 248 241 235 231 227 222 212 208 204 200 199 201 204 209 208 208 207 211 212 207 200 199 195 189 191 195 194 191 191 188 195 186
220 237 251 259 228 260 279 277 273 256 241 244 251 250 250 254 255 253 252 240 231 227 226 222 214 207 205 207 204 211 209 212 213 211 213 213 213 205 202 199 196 196 197 197 197 197 196 191 197
226 233 243 256 292 248 289 275 247 236 229 245 250 253 254 245 244 242 244 245 237 232 229 222 219 215 209 205 197 190 196 203 206 212 214 214 214 209 205 204 199 199 202 204 204 204 203 205 204
232 227 229 242 263 265 288 287 263 253 256 248 253 253 257 252 248 244 239 240 238 239 233 226 219 213 208 201 202 198 204 209 211 210 212 213 212 211 207 205 204 204 208 211 210 212 215 212 210
208 162 207 232 240 266 234 258 272 233 254 264 263 261 268 265 257 247 241 240 239 238 232 225 214 209 206 205 207 207 213 217 213 206 208 209 208 211 210 206 207 209 211 214 215 210 212 216 221
150 136 139 180 216 250 226 233 267 224 245 282 301 290 280 278 271 264 260 258 249 243 230 227 215 208 204 205 209 212 215 210 206 205 205 207 208 212 214 210 211 214 215 215 216 215 215 218 224
185 180 206 217 223 242 176 232 255 262 253 273 301 315 321 308 283 279 269 256 252 247 240 230 219 211 206 206 209 214 219 215 214 209 208 206 210 215 215 211 214 215 218 218 216 218 220 220 222
193 209 211 231 241 252 198 237 253 270 264 281 316 331 335 333 312 295 281 263 252 249 246 235 225 217 208 209 212 215 221 218 220 220 214 213 216 221 218 212 214 216 217 217 214 219 220 222 224
183 204 237 187 4 263 244 254 276 230 235 264 352 3 1 348 334 320 317 302 277 260 251 239 225 219 215 213 213 214 218 221 221 218 222 226 228 226 216 210 211 215 214 213 212 219 221 221 225
273 172 171 197 217 246 256 246 234 215 222 320 352 345 348 354 350 334 322 313 301 289 269 244 231 222 216 214 215 221 222 221 219 214 220 229 233 224 215 216 214 215 213 210 211 218 222 221 223
173 189 201 196 232 234 254 247 209 215 217 251 321 330 332 343 344 337 324 316 320 338 342 274 238 233 229 222 219 219 222 218 215 216 221 227 232 227 221 219 215 217 217 214 213 218 221 223 223
231 212 187 201 217 229 256 262 83 206 268 272 313 336 343 342 346 346 341 344 348 343 342 329 284 250 240 230 218 219 215 205 210 218 223 226 229 229 223 222 221 219 221 218 216 218 221 224 225